User: anonymous   Login
Location: Boitzum
(52.1496°N, 9.6943°E)
Time: 15:46:57
(UTC+00:00)
Language:

USA 32 - Orbit

View from above orbital plane
View from above orbital plane
View from above satellite
View from above satellite

Ground track
Ground track

The orbit is defined by the following mean orbital elements,

1 19460U          26076.22042522 +.00000000 +00000-0 +52558-4 0 00002
2 19460  84.9913 166.5309 0004558  62.7445 297.4213 14.34417556    04
Epoch (UTC): 17 March 2026 05:17:24
Eccentricity: 0.0004558
inclination: 84.9913°
perigee height: 774 km
apogee height: 780 km
right ascension of ascending node: 166.5309°
argument of perigee: 62.7445°
revolutions per day: 14.34417556
mean anomaly at epoch: 297.4213°

The dashed part of the orbit path shows where the satellite is in the earth's shadow,  

DLR